Terminal Aerodrome Forecast
Issued by NWS Key West, FL

Home | Current Version | Previous Version | Text Only | Print | Product List | Glossary On
Versions: 1 2 3 4 5 6 7 8 9 10 11 12 13 14 15 16 17 18 19 20 21 22 23 24 25 26 27 28 29 30 31 32 33 34 35 36 37 38 39 40 41 42 43 44 45 46
000
FTUS42 KKEY 010859 AAA
TAFEYW
TAF AMD
KEYW 010859Z 0109/0206 06011KT P6SM FEW025 SCT040 BKN060
     FM011100 10012G17KT P6SM SCT025 SCT050
     FM011500 12014G23KT P6SM SCT025 BKN050=

USA.gov is the U.S. government's official web portal to all federal, state and local government web resources and services.